Regional Weather Roundup
Issued by NWS

Home | Current Version | Previous Version | Text Only | Print | Product List | Glossary On
Versions: 1 2 3 4 5 6 7 8 9 10 11 12 13 14 15 16 17 18 19 20 21 22 23 24 25 26 27 28 29 30 31 32 33 34 35 36 37 38 39 40 41 42 43 44 45 46 47 48 49 50
000
ASUS42 KFFC 291103
RWRGA
WEATHER ROUNDUP FOR GEORGIA
NATIONAL WEATHER SERVICE PEACHTREE CITY GA
700 AM EDT SUN MAR 29 2015

NOTE: "FAIR" INDICATES FEW OR NO CLOUDS BELOW 12,000 FEET WITH NO
SIGNIFICANT WEATHER AND/OR OBSTRUCTIONS TO VISIBILITY.

* = USE WITH CAUTION. THE STATIONS MARKED WITH AN ASTERISK MAY NOT
REPORT WEATHER SUCH AS PRECIPITATION, FOG, OR THUNDER AND ARE NOT
QUALITY CONTROLLED BY NWS.

THE REMARK "TC" DENOTES TEMPERATURE READING IN DEGREES CELSIUS.

GAZ001>058-291200-
NORTH GEORGIA

CITY           SKY/WX    TMP DP  RH WIND       PRES   REMARKS
ATLANTA        CLEAR     35  14  42 N6        30.33R WCI  30
ATHENS         CLEAR     28  22  78 CALM      30.36R
CHAMBLEE       CLEAR     27  21  78 CALM      30.34R
PEACHTREE CITY CLEAR     26  22  84 CALM      30.36R
ROME           CLEAR     27  20  75 CALM      30.35S
WEST ATLANTA   CLEAR     27  21  78 CALM      30.35R
GAINESVILLE    CLEAR     31  20  63 CALM      30.35R
CARTERSVILLE   CLEAR     23  17  78 CALM      30.37R


CITY           SKY/WX    TMP DP  RH WIND       PRES   REMARKS
DALTON*        CLEAR     27  21  80 CALM      30.35S
LAWRENCEVILLE* CLEAR    N/A N/A N/A CALM      30.33
MARIETTA       CLEAR     28  19  68 W2        30.33R
KENNESAW*      CLEAR     27  19  74 CALM      30.36
$$

GAZ059>098-102>109-291200-
CENTRAL GEORGIA

CITY           SKY/WX    TMP DP  RH WIND       PRES   REMARKS
AUGUSTA-BUSH   CLEAR     28  23  81 CALM      30.40R
AUGUSTA-DANIEL CLEAR     37  16  42 NE7       30.39R WCI  32
COLUMBUS       PTCLDY    36  19  50 CALM      30.35R
MACON          CLEAR     29  26  89 CALM      30.37R
ROBINS AFB     CLEAR     31  27  84 NW2       30.37R


CITY           SKY/WX    TMP DP  RH WIND       PRES   REMARKS
LAGRANGE*      CLEAR     30  28  90 CALM      30.35R
SYLVANIA*      CLEAR     36  26  65 NE7       30.37R WCI  31
MILLEDGEVILLE* CLEAR     30  30 100 CALM      30.37R
$$

GAZ099>101-110>166-291200-
SOUTH GEORGIA

CITY           SKY/WX    TMP DP  RH WIND       PRES   REMARKS
SAVANNAH       CLEAR     35  27  72 N7        30.36R WCI  29
VALDOSTA       MOCLDY    44  28  53 N7        30.34R
ALMA           CLEAR     37  25  61 N5        30.34R WCI  33
ST SIMONS      CLEAR     40  28  62 N9        30.32R WCI  34
FT STEWART     CLEAR     37  27  67 N5        30.33R WCI  33
ALBANY         MOCLDY    44  22  41 NE3       30.37R
HUNTER AFB     CLEAR     39  29  67 N6        30.33R WCI  35
MOODY AFB      CLEAR     40  28  60 N8        30.32R
BRUNSWICK      CLEAR     37  30  75 NW3       30.33R


CITY           SKY/WX    TMP DP  RH WIND       PRES   REMARKS
BAINBRIDGE*    CLEAR     43  39  87 CALM      30.35R
MOULTRIE*      PTCLDY    45  28  53 N3        30.34R
VIDALIA*       CLEAR     36  27  69 NE6       30.36R WCI  31
WAYCROSS*      CLEAR     39  32  73 N3        30.34R
DOUGLAS*       CLEAR     39  28  65 NE6       30.36R WCI  35
$$



USA.gov is the U.S. government's official web portal to all federal, state and local government web resources and services.